Wind_Speed
40 40 40 40 39 39 40 40 40 39 37 36 35 36 35 34 35 34 34 34 35 34 34 34 33 33 32 33 33 32 32 31 30 30 31 31 31 30 29 29 30 30 30 29 29 29 29 29 28 27 25 25 26 26 27 27 27 28 27 26 25 22 21 21 17 18 24 24 22 22 20 20 22 23 24 25 25 25 27 28 30 31 32 31 30
40 40 40 39 40 40 40 40 40 39 37 36 36 36 35 35 34 33 32 33 34 35 35 35 34 33 33 34 33 33 33 33 32 32 32 32 32 32 31 31 31 32 31 32 32 31 31 31 31 29 28 28 28 28 28 29 29 31 30 29 28 27 24 23 21 19 23 26 26 24 23 22 23 24 25 26 26 26 27 28 29 31 32 33 32
40 40 39 39 40 40 39 39 39 38 37 37 37 36 36 35 34 33 33 33 33 34 35 35 34 34 34 34 34 34 34 34 34 33 34 34 33 33 33 33 33 33 33 34 34 33 32 33 33 33 31 30 31 30 30 30 31 32 34 32 31 30 28 26 24 22 24 27 28 27 26 25 26 26 27 27 27 27 28 29 30 31 32 33 34
39 38 38 39 39 38 38 37 37 37 37 37 37 37 36 36 35 34 35 34 33 34 35 34 34 34 34 35 35 36 36 36 36 35 35 35 34 35 34 34 35 35 35 35 34 33 33 34 35 34 33 32 33 33 32 32 32 33 35 35 34 33 31 28 27 27 26 26 28 28 27 27 28 28 27 28 28 29 30 30 30 31 32 33 34
37 37 38 38 37 37 37 36 37 37 37 37 37 37 37 36 35 35 35 35 35 35 34 34 34 34 35 36 37 37 37 37 37 37 36 36 35 36 35 36 36 36 36 36 34 33 33 34 36 34 32 32 34 35 35 34 34 34 35 36 35 35 34 32 31 30 29 29 30 29 27 26 28 29 28 28 28 29 30 31 31 31 32 32 34
37 37 37 36 36 36 37 37 37 38 39 38 38 38 37 36 35 35 36 36 36 36 35 35 35 35 37 37 37 38 38 37 37 37 37 36 36 36 36 36 37 37 37 36 35 34 34 35 36 33 32 33 35 36 36 35 35 35 35 36 36 35 34 33 32 31 32 33 33 31 29 28 28 30 30 29 29 29 30 32 32 32 33 34 35
36 37 36 36 36 37 39 39 39 39 39 39 39 38 37 37 36 37 37 37 37 37 36 36 36 37 38 38 38 38 37 37 37 37 37 37 37 37 37 37 37 37 37 36 35 35 36 37 36 34 34 35 37 37 36 35 34 34 35 36 35 34 33 32 31 31 31 32 32 32 32 31 29 29 30 29 28 29 29 29 31 33 33 35 37
37 37 36 36 37 38 40 40 40 39 39 38 38 37 38 38 38 38 38 37 38 38 37 37 37 38 39 39 39 38 37 37 37 38 38 38 38 38 38 38 38 38 37 37 35 34 35 36 37 37 37 38 40 39 37 35 34 33 35 35 34 33 32 31 30 28 29 29 30 31 32 31 30 28 28 26 25 29 31 29 32 34 33 33 36
37 37 36 37 38 39 39 38 38 38 37 37 37 37 38 38 38 38 38 38 38 38 38 37 37 37 38 39 39 38 37 38 39 39 39 39 39 39 38 38 38 38 37 36 35 35 36 36 38 38 39 40 41 41 40 38 36 35 35 35 33 33 33 32 29 27 27 26 27 28 28 29 30 28 27 28 29 31 31 27 30 35 32 31 34
37 37 37 38 38 38 37 37 37 37 37 37 38 38 37 37 37 37 37 37 38 38 37 37 37 37 38 38 38 38 38 40 41 42 42 41 39 38 37 38 37 37 36 35 35 36 37 38 39 39 39 40 41 41 42 41 40 39 39 37 35 33 32 31 29 28 26 25 26 27 25 27 30 29 30 33 33 32 31 27 28 31 27 25 30
36 36 36 37 37 36 36 36 36 36 37 38 38 38 37 37 37 37 37 37 37 37 37 37 38 38 38 38 38 38 39 41 43 43 44 42 40 39 37 37 36 35 35 35 36 37 37 37 39 39 40 40 41 42 42 42 43 42 42 41 40 38 35 33 31 30 28 26 28 28 26 28 32 32 32 34 33 32 32 29 28 26 23 20 21
35 35 35 36 36 36 36 35 35 36 36 37 37 37 37 37 37 37 36 37 37 36 37 37 38 39 38 38 38 39 40 42 43 44 44 43 43 41 39 36 34 34 35 36 37 37 36 37 38 38 39 40 41 41 41 42 43 43 44 44 43 44 42 40 38 34 30 29 29 30 29 30 33 34 33 33 33 32 31 29 28 27 26 23 21
34 35 35 36 36 36 36 36 36 36 36 37 37 37 37 37 38 37 37 37 36 36 38 38 39 39 38 39 39 40 41 42 44 44 44 44 43 42 41 38 34 34 34 35 36 37 37 36 36 37 39 39 39 39 40 41 42 42 43 43 44 45 46 47 46 42 38 35 32 34 35 33 34 37 36 34 32 30 29 29 29 29 28 28 29
34 35 36 36 36 36 36 36 36 36 37 38 38 37 37 38 38 38 37 36 36 38 38 38 39 39 39 39 39 40 41 42 43 43 43 44 43 42 42 40 37 36 36 36 36 37 37 36 36 37 38 38 37 37 38 39 39 40 41 40 42 44 46 48 48 46 45 43 40 42 43 39 38 41 40 36 33 31 32 32 31 32 32 32 35
34 35 35 35 35 35 36 35 36 36 37 37 37 37 37 37 37 37 36 37 38 38 38 38 39 39 39 39 38 39 42 42 41 41 42 42 42 41 41 40 39 39 38 38 38 38 37 36 37 38 38 38 37 37 37 38 38 39 39 39 39 41 43 46 44 44 46 47 48 50 50 48 45 46 44 40 38 40 39 36 35 34 31 30 31
32 33 33 34 35 35 35 36 36 36 36 36 36 37 37 37 37 37 37 37 38 38 38 38 38 38 38 38 38 40 42 41 40 40 41 40 39 39 39 40 40 40 41 40 39 39 38 37 37 38 38 39 38 38 38 38 38 38 39 39 38 39 42 42 40 41 43 45 47 49 51 51 49 49 49 46 45 45 37 33 36 33 26 24 25
31 32 32 33 35 36 36 36 36 36 36 36 36 37 37 37 37 37 37 36 37 37 38 38 38 38 38 38 39 40 42 40 39 40 40 38 36 37 38 39 40 41 42 41 40 40 39 38 38 38 39 39 38 38 38 38 38 39 38 38 37 38 39 37 36 40 41 42 45 46 47 48 47 48 51 51 53 48 33 31 40 35 24 19 18
30 31 32 34 35 36 37 37 37 37 36 36 37 37 38 37 38 38 38 37 38 38 38 38 38 38 38 39 39 40 41 40 39 39 39 37 35 36 37 38 40 40 40 40 40 40 40 39 39 38 39 39 38 39 39 37 38 39 38 37 36 36 36 33 32 35 36 37 40 40 41 43 43 46 50 51 55 51 38 40 47 36 22 20 20
30 31 33 35 37 38 38 38 38 37 36 37 38 38 39 38 38 38 38 38 38 37 37 36 37 37 38 38 38 39 39 39 38 39 39 37 36 36 36 37 38 38 38 38 38 38 39 39 39 39 41 41 40 40 40 38 38 39 38 35 34 35 36 33 31 35 36 32 29 29 34 39 41 46 50 49 52 53 48 49 51 39 24 24 28
32 33 35 36 37 37 37 38 38 37 37 38 39 39 39 38 37 36 36 36 36 35 35 35 35 35 36 36 36 37 38 38 38 38 39 38 36 36 36 37 37 37 36 36 35 36 37 38 38 39 40 41 41 41 40 38 38 38 37 34 33 36 38 34 31 33 27 16 13 21 32 35 34 37 43 45 48 49 48 48 49 44 32 27 33
27 29 31 32 34 35 36 37 38 38 38 39 38 38 38 37 36 35 35 35 34 33 33 33 33 33 34 34 35 36 37 37 38 38 38 37 36 36 37 38 38 36 35 34 33 34 35 35 36 37 38 38 37 37 36 35 35 35 36 36 37 40 40 35 32 29 19 10 11 24 36 38 36 36 40 43 44 43 43 43 45 47 42 37 38
22 24 26 29 31 32 34 35 36 37 37 37 36 35 36 36 35 35 34 33 32 32 32 31 31 31 31 32 33 34 35 36 37 38 38 37 36 37 38 38 38 36 34 33 33 33 34 33 32 32 31 31 31 30 30 29 29 30 32 33 34 35 33 31 30 26 16 10 15 24 34 39 40 41 42 43 44 44 43 42 42 44 46 47 47
18 22 26 28 30 32 33 34 35 35 35 35 34 34 35 35 34 33 32 31 30 30 30 30 29 28 28 29 30 32 33 34 35 36 36 36 36 37 38 38 38 38 36 34 32 31 30 28 27 26 26 26 26 26 25 25 25 25 25 25 25 26 26 25 24 20 10 9 14 20 27 33 35 37 39 41 43 44 44 44 43 42 44 48 53
13 19 24 28 30 32 33 33 34 34 34 34 33 33 33 32 32 32 31 30 28 27 27 28 27 25 25 26 28 30 32 33 33 34 34 34 34 35 36 36 36 38 37 34 30 27 25 22 21 20 20 20 20 21 21 21 21 21 21 21 22 22 23 21 20 17 10 9 14 20 25 28 32 35 38 40 41 42 44 46 46 45 44 47 51
8 15 21 25 28 30 32 32 33 33 33 33 33 32 31 30 29 29 29 28 27 25 25 25 25 24 24 24 26 29 30 30 30 30 30 31 32 32 33 34 34 36 37 33 29 25 23 20 18 18 18 18 19 19 19 18 18 17 17 17 18 18 19 18 17 16 13 12 15 19 24 29 33 36 39 41 42 43 45 48 49 47 45 45 49
6 9 15 20 23 25 27 29 30 31 31 32 33 32 31 29 28 28 28 27 26 25 24 24 24 23 23 23 25 26 26 25 26 26 27 28 29 30 30 30 32 34 35 32 29 25 23 21 20 19 18 16 14 13 12 11 11 11 12 13 15 16 18 18 17 16 16 17 18 21 25 29 33 36 38 40 41 43 45 47 48 46 43 41 44
7 7 10 15 17 20 23 25 26 27 28 29 30 30 30 29 28 27 26 25 24 23 22 22 22 21 21 22 24 23 22 22 22 23 23 24 25 26 27 28 29 30 29 28 25 22 19 15 12 10 7 5 4 4 5 6 8 10 12 13 15 18 19 19 18 18 18 19 20 22 26 29 32 35 36 36 38 42 44 45 44 45 43 40 40
7 6 7 10 13 17 21 23 24 24 24 23 23 22 23 24 25 25 25 25 24 23 22 22 23 23 23 23 21 19 19 20 21 21 21 22 22 22 22 22 22 21 19 18 15 11 8 6 5 3 2 1 2 3 5 7 9 11 13 15 17 20 22 24 23 22 22 22 22 23 26 28 30 34 35 36 38 40 41 41 42 43 43 39 37
6 6 5 7 10 14 17 19 21 21 20 18 15 13 14 17 19 20 22 24 25 25 25 25 26 27 26 25 22 20 19 19 19 18 17 17 17 17 16 15 14 13 12 12 11 10 8 6 4 2 1 2 4 7 9 10 12 13 14 17 20 23 25 26 26 26 26 26 25 26 27 28 29 32 34 35 38 39 39 38 39 40 41 38 36
5 5 5 6 9 12 14 16 18 20 19 18 17 14 10 11 14 16 18 20 23 24 25 26 27 27 26 24 23 22 22 21 19 17 16 15 15 14 14 15 14 13 13 12 11 9 7 5 4 4 5 6 8 10 12 13 15 16 17 19 21 23 25 25 26 27 28 28 28 29 30 29 30 32 32 34 37 38 37 36 37 37 37 35 34
4 4 5 6 9 12 15 17 19 20 20 20 20 17 13 9 8 10 13 16 18 20 22 22 24 24 24 23 21 19 18 18 19 19 18 17 17 16 16 16 15 13 12 11 9 8 7 6 6 7 7 9 10 11 12 14 15 16 17 19 21 23 24 25 26 27 28 28 29 30 31 31 31 33 34 35 38 38 37 35 34 34 34 33 32
5 5 6 7 10 13 16 18 20 21 21 20 20 20 18 15 12 8 6 9 12 14 16 16 17 19 20 21 20 18 18 20 21 20 19 18 18 17 16 15 13 11 10 9 9 9 7 7 7 7 7 9 10 11 11 12 12 13 16 18 21 22 23 24 26 27 27 28 29 31 32 33 34 35 37 37 38 37 36 33 31 31 32 32 30
5 6 7 9 11 14 16 19 21 22 22 22 21 21 20 19 18 18 15 12 9 8 8 9 11 13 14 15 18 21 24 24 23 21 20 18 17 16 14 13 12 10 8 8 9 10 8 8 8 7 7 8 9 9 9 9 11 13 15 17 19 20 22 23 25 26 28 29 30 31 32 34 36 37 37 38 37 37 36 35 34 32 30 28 27
3 4 6 9 13 15 17 19 21 22 22 23 22 21 20 22 24 24 23 21 19 17 17 16 14 14 15 17 20 24 25 23 21 19 17 15 14 13 12 13 12 11 9 9 10 10 9 8 7 7 7 7 7 7 8 9 12 14 15 17 17 19 21 22 24 26 28 30 31 32 34 35 36 36 38 41 41 39 38 36 34 31 28 25 25
1 1 2 5 9 14 17 19 21 21 21 20 21 21 22 23 24 24 24 23 23 22 21 22 22 22 22 22 21 21 20 18 17 15 13 13 13 13 13 14 13 12 11 10 10 10 9 8 7 7 6 6 5 6 7 10 13 14 15 16 17 18 20 22 24 26 27 29 31 32 34 35 35 36 39 41 41 41 39 36 33 29 26 24 24
4 4 3 3 5 9 14 17 19 21 21 20 20 21 23 23 23 23 24 24 24 24 22 22 21 21 20 20 18 17 17 17 17 17 15 15 14 13 13 13 13 12 11 10 10 9 8 7 7 6 5 5 5 6 7 10 12 13 14 15 16 18 20 22 25 27 27 28 30 31 32 33 34 36 38 39 40 40 39 37 34 30 27 26 25
7 7 7 6 7 8 10 13 16 19 20 21 21 22 24 24 25 25 25 24 24 24 23 22 21 20 19 18 18 19 19 19 18 18 16 15 14 13 13 13 12 11 10 9 8 8 8 7 6 5 6 6 6 6 7 9 11 12 13 14 16 18 20 22 24 25 26 27 28 29 30 31 32 34 35 36 37 38 37 35 34 30 28 27 24
9 10 10 10 11 12 12 13 16 19 20 19 20 21 23 24 24 24 23 23 23 22 21 20 19 19 18 17 18 20 20 19 18 18 17 15 14 13 13 13 11 11 9 8 8 7 7 6 5 6 7 7 6 6 7 9 10 12 13 14 16 18 20 22 24 24 24 25 26 27 28 30 31 33 32 32 33 35 34 33 31 28 26 24 21
14 14 14 15 16 17 16 15 16 20 22 21 18 19 22 24 24 22 22 23 23 23 23 23 21 19 18 18 20 21 21 20 19 19 18 16 15 13 13 12 11 11 9 7 7 6 6 5 6 8 9 9 7 6 7 8 10 11 12 13 15 18 20 21 23 23 23 24 25 26 27 29 31 33 32 31 32 33 33 32 29 25 22 19 14
19 19 19 19 21 22 20 17 16 18 23 25 23 21 22 25 25 23 23 24 24 24 26 27 24 21 19 20 20 21 21 21 20 18 17 16 14 13 12 11 11 10 8 7 6 6 6 7 8 9 10 9 8 6 7 8 9 10 11 12 14 17 18 19 21 22 22 23 23 24 26 28 30 32 32 32 32 32 32 32 30 27 23 18 15
22 22 22 23 25 25 24 22 18 18 22 27 28 26 25 27 28 27 26 26 25 24 26 27 25 23 22 22 21 21 22 21 20 18 16 15 13 12 12 11 10 9 8 7 6 6 8 9 9 9 9 8 7 6 7 8 8 8 10 12 14 15 16 17 18 19 20 21 22 23 24 25 27 28 30 31 31 30 30 30 30 30 28 26 26
24 24 24 25 26 27 28 26 23 22 24 27 29 29 29 29 30 30 29 27 25 25 26 25 24 23 23 22 21 22 22 21 19 18 17 15 14 13 12 10 9 9 9 8 7 8 9 9 9 9 8 7 6 6 6 7 7 7 9 11 13 14 14 15 16 17 18 19 20 21 22 23 23 24 26 28 28 28 29 29 30 30 29 27 27
27 26 27 28 29 29 29 29 28 26 25 26 28 31 32 32 30 29 28 26 25 25 25 24 22 22 21 20 20 21 21 20 19 18 17 16 15 14 13 11 10 9 9 8 7 8 9 9 8 8 7 6 6 6 6 7 7 7 8 10 12 13 14 14 14 14 16 18 18 19 19 20 21 22 22 23 24 25 26 28 29 29 29 27 26
30 29 28 30 32 31 30 30 30 29 27 27 29 31 32 32 30 27 26 25 24 25 25 23 21 21 20 19 19 19 20 19 18 18 17 16 15 15 14 13 12 10 10 9 8 7 7 7 7 7 6 5 5 5 6 7 7 7 9 10 11 13 14 14 14 13 14 14 15 16 17 18 19 19 19 19 20 21 22 24 26 27 28 28 27
28 29 30 31 32 31 30 30 31 31 30 31 31 31 31 31 29 26 24 23 23 23 23 22 21 20 20 19 19 18 18 17 17 16 16 15 15 14 14 13 12 11 10 9 8 7 6 6 7 7 6 5 5 6 6 6 7 8 9 10 11 13 14 15 14 13 12 12 13 13 14 15 17 17 17 16 16 16 17 18 20 22 24 26 25
24 25 28 30 31 30 28 28 29 30 30 31 31 30 29 28 27 24 23 24 23 22 21 20 20 20 20 19 19 18 17 16 16 15 15 15 14 14 13 11 11 10 10 9 8 8 7 8 8 7 7 7 6 6 7 7 8 8 9 10 11 12 13 14 15 14 12 12 12 13 12 13 14 14 13 13 13 13 13 13 15 16 17 19 20
25 23 23 25 26 26 25 26 26 27 28 28 29 28 25 23 22 22 22 22 22 21 21 21 21 21 20 19 19 18 18 17 16 15 14 14 14 13 12 11 11 11 11 10 10 10 10 11 10 9 9 8 8 7 8 8 8 9 9 10 11 11 12 13 15 15 13 13 13 13 13 14 13 12 11 11 12 12 10 9 10 10 11 12 14
27 26 25 24 24 23 23 24 25 26 26 26 26 25 23 22 22 22 21 20 20 21 21 21 21 20 20 19 19 19 19 20 19 17 15 14 14 14 14 13 12 12 13 12 12 12 12 12 12 11 11 10 9 9 9 9 9 9 10 10 11 12 12 13 14 15 15 14 14 14 14 15 14 14 13 12 11 11 10 9 8 7 5 5 7
32 30 28 28 28 26 24 24 26 26 26 26 26 25 23 23 22 22 21 21 21 21 21 21 20 20 19 19 19 19 20 21 21 20 19 17 16 15 15 15 14 14 15 15 15 14 13 13 13 12 12 11 10 10 9 9 9 10 10 11 11 12 12 13 14 14 14 14 14 14 15 15 15 15 14 13 12 12 12 11 10 9 7 5 3
35 32 31 30 30 29 27 27 27 26 25 27 27 24 23 22 21 21 22 23 23 23 23 22 21 20 20 19 19 20 20 21 21 21 21 20 19 18 18 18 17 17 18 18 17 16 16 15 14 13 13 12 11 11 11 11 11 11 11 11 11 11 11 12 13 13 14 14 14 14 15 15 15 15 14 14 14 13 13 13 12 10 9 8 6
38 36 33 31 31 31 31 31 30 28 28 28 28 26 24 22 22 21 21 21 21 22 24 25 25 24 23 21 20 20 21 21 22 22 21 21 20 20 20 19 19 18 18 19 19 18 18 18 17 16 15 15 14 13 13 12 12 12 12 11 11 11 11 11 12 13 14 14 13 13 13 13 13 13 13 13 14 14 14 14 14 12 11 9 7
Wind_Direction
199 200 202 203 204 205 207 209 211 212 213 213 215 217 218 219 221 221 222 224 225 226 227 228 229 230 230 232 233 235 236 237 238 239 239 241 244 246 247 245 244 246 247 248 248 248 249 250 253 254 254 254 253 251 249 247 247 249 251 256 258 260 256 243 238 259 268 267 269 270 267 262 259 259 260 262 263 262 261 262 261 259 258 258 258
200 201 201 202 204 206 207 209 210 211 212 213 215 217 218 220 221 221 222 224 225 226 228 229 229 230 230 232 234 235 236 237 238 238 238 240 241 243 244 244 244 245 245 246 247 247 248 249 251 254 254 254 254 253 252 249 248 250 251 254 258 259 260 254 246 254 267 268 268 269 267 260 258 259 260 261 263 264 264 264 264 263 262 261 261
200 201 201 203 205 206 207 208 209 210 211 213 215 217 219 220 221 221 222 224 226 227 229 229 229 229 230 231 234 235 236 237 237 237 237 239 239 241 242 242 243 243 243 245 246 246 246 247 250 252 252 252 253 253 254 253 252 252 253 254 257 259 260 259 254 252 261 268 269 268 267 263 261 262 263 263 264 264 263 264 265 265 264 263 262
200 200 201 203 205 205 207 207 208 209 211 213 215 217 219 220 221 222 223 224 226 228 229 230 230 229 229 230 232 234 235 236 237 237 237 238 239 240 241 241 242 243 244 245 246 245 245 246 249 250 249 250 252 253 253 253 254 254 254 255 256 257 258 258 257 255 257 264 267 266 266 266 266 266 265 264 263 262 262 263 264 264 263 262 261
199 200 201 203 204 205 206 207 208 209 211 213 215 217 218 219 220 222 223 224 226 227 228 229 229 229 230 231 232 233 234 235 236 236 237 238 239 240 241 241 242 243 244 245 246 246 246 247 249 250 248 249 251 253 253 252 253 253 254 255 255 256 257 256 256 256 254 258 264 267 267 266 267 268 267 265 264 263 262 262 262 262 262 260 259
199 200 201 202 203 204 205 207 208 210 212 213 215 216 217 218 219 221 222 224 226 227 227 228 228 229 231 232 233 233 234 234 235 236 237 238 239 240 241 242 242 243 244 245 246 246 247 249 251 250 249 249 252 253 253 253 253 252 253 255 255 256 256 255 254 254 253 255 261 266 267 265 264 266 267 267 266 264 263 263 262 260 260 259 258
199 200 201 202 203 204 205 207 209 211 212 213 214 216 216 217 218 220 222 223 225 226 227 228 229 230 232 233 234 235 234 234 235 236 237 238 239 240 241 242 243 244 245 245 246 246 248 249 251 251 250 251 253 254 254 254 254 254 254 255 256 256 256 255 254 252 252 255 259 263 266 267 266 266 267 267 266 264 262 261 261 260 257 256 256
198 200 201 202 204 206 206 208 209 211 213 214 215 216 216 217 218 220 221 222 224 226 227 228 229 231 233 233 235 235 235 235 236 236 237 237 238 239 240 241 242 244 246 246 246 246 248 249 251 251 252 253 255 256 255 254 254 255 257 257 256 255 255 255 254 252 251 253 257 261 265 268 268 267 267 264 259 259 258 254 256 259 257 255 256
197 199 200 203 205 207 208 208 210 211 212 213 215 216 217 218 219 220 221 222 224 226 227 228 230 232 233 234 235 236 235 236 237 237 237 236 236 238 239 240 241 243 245 246 247 247 248 250 251 252 253 255 257 258 258 258 255 255 258 259 256 255 255 255 254 252 251 252 256 260 262 265 266 265 264 260 255 259 261 255 254 258 259 257 257
196 198 200 203 206 207 208 209 209 210 211 213 215 216 217 218 219 221 222 223 225 226 227 228 230 232 234 235 236 236 236 237 238 239 238 238 237 237 238 239 240 242 243 245 246 247 248 250 252 254 255 257 259 260 260 261 259 258 259 260 257 256 254 253 253 251 250 251 253 256 257 260 262 261 261 262 261 262 262 256 254 259 261 260 261
196 199 201 204 205 207 207 208 209 210 211 213 214 215 216 218 219 221 222 223 225 226 227 228 230 232 234 235 236 236 237 238 239 240 240 240 238 237 238 239 240 241 242 244 246 248 249 250 252 254 255 257 258 260 261 262 262 261 261 261 259 258 255 254 253 252 250 250 253 254 253 256 261 261 260 263 264 261 260 256 254 256 255 254 261
196 199 202 204 205 206 206 207 208 210 211 212 214 215 216 217 219 220 221 223 224 226 227 229 230 232 233 235 236 237 238 240 241 241 242 241 241 240 239 239 239 240 242 243 246 248 249 250 252 253 254 256 257 259 260 262 262 263 263 262 261 260 258 256 254 253 251 251 253 254 252 255 261 262 260 262 262 261 260 257 252 251 250 247 250
196 200 202 203 204 205 205 206 208 209 211 212 214 215 215 216 217 219 221 222 224 226 228 229 231 232 233 234 236 238 239 241 242 242 243 243 243 242 241 240 241 242 243 244 246 247 248 250 251 253 255 256 256 257 258 260 262 263 263 263 262 262 261 260 257 255 254 255 256 258 258 257 260 262 263 263 262 260 258 255 252 249 246 246 249
197 200 203 203 204 205 205 206 207 209 210 212 213 214 214 216 217 219 220 221 223 225 227 229 231 232 233 234 237 239 240 242 243 243 244 244 244 244 243 242 243 244 245 246 247 249 249 249 250 253 255 256 256 256 257 259 261 262 262 262 262 262 262 262 259 257 255 255 255 259 262 261 261 265 267 265 262 259 257 255 254 250 248 250 255
198 201 202 203 204 204 204 205 206 208 210 210 212 213 214 216 217 218 219 220 222 225 226 228 230 232 233 235 237 240 242 243 243 244 245 246 245 245 244 244 244 246 247 248 249 250 251 251 251 253 256 257 257 257 257 258 259 261 261 261 261 262 263 264 262 260 259 257 256 258 263 264 264 266 268 266 263 262 260 259 261 259 255 254 256
198 200 201 202 204 204 204 205 206 208 209 209 210 213 214 216 217 217 219 220 223 225 226 228 230 231 233 234 236 240 243 243 244 245 246 247 246 245 245 245 245 246 248 249 250 252 252 252 252 254 255 257 258 258 259 259 259 259 260 260 261 262 263 265 265 264 263 262 261 262 265 266 267 268 270 267 264 262 260 260 261 258 248 245 249
199 200 201 202 204 205 205 205 206 208 208 208 210 212 214 216 217 217 217 219 222 224 226 228 230 230 232 232 234 238 242 243 244 245 247 247 245 244 244 244 245 246 248 250 251 252 253 253 253 254 256 257 259 260 261 260 258 258 259 261 262 262 263 265 266 266 265 266 266 267 268 270 271 272 272 269 265 261 254 250 255 249 230 228 248
200 201 202 204 205 206 206 206 207 208 208 208 210 213 215 216 217 217 217 218 221 223 225 227 229 230 231 231 233 236 241 243 244 245 246 246 245 245 244 244 244 245 247 250 251 252 254 254 254 255 256 258 259 261 262 261 258 258 259 261 263 264 266 268 268 268 268 267 268 268 268 269 269 268 268 267 265 261 249 247 254 249 220 210 239
202 203 204 206 208 208 207 208 208 209 209 209 211 213 215 217 218 217 217 219 221 223 224 226 228 230 231 233 233 235 239 243 243 244 245 245 244 244 244 243 243 245 247 249 251 253 254 255 256 256 257 259 260 261 262 261 259 260 261 261 264 267 270 272 271 272 271 267 264 266 266 265 264 264 266 267 267 262 253 250 254 251 228 208 221
207 207 207 208 209 209 209 209 209 210 210 212 213 215 216 217 217 217 217 219 222 223 224 225 228 230 231 233 234 235 238 241 243 244 245 244 244 244 242 240 241 243 246 248 250 252 254 256 257 258 260 262 263 263 264 262 261 263 263 262 265 270 274 276 273 274 277 275 268 272 272 270 269 270 271 271 269 266 261 256 254 251 240 219 218
212 211 210 210 210 210 210 210 211 212 213 214 215 215 216 217 217 216 217 218 220 222 224 225 227 230 232 232 234 235 237 239 242 243 244 244 244 243 242 240 241 243 245 246 248 251 253 256 259 261 264 266 267 268 269 268 268 268 267 267 269 271 275 277 277 284 299 314 296 285 280 278 278 277 276 275 274 272 267 262 256 251 243 231 225
220 218 216 214 213 212 212 212 213 214 214 214 214 215 217 217 218 217 217 218 219 221 223 224 226 229 232 232 233 235 236 238 241 243 244 244 244 244 244 244 245 245 244 246 248 250 253 256 259 261 263 265 268 270 273 273 274 273 273 275 278 280 284 288 292 301 304 274 263 273 277 277 277 275 275 274 275 274 271 266 260 253 246 240 235
222 221 219 217 216 214 214 214 214 214 215 215 214 215 216 217 217 217 217 217 218 219 221 223 225 228 231 232 233 235 237 239 240 241 243 244 245 246 246 248 249 248 245 245 248 251 254 255 257 259 261 264 268 271 273 275 277 278 281 287 292 297 303 307 313 322 311 233 235 256 266 273 276 276 276 276 277 278 277 273 267 259 251 246 242
224 221 219 217 216 215 215 215 215 215 215 215 215 215 215 215 216 217 216 216 216 218 220 221 222 225 228 230 232 234 237 239 241 241 243 244 245 246 247 248 249 246 244 244 246 248 251 252 253 256 260 263 267 271 274 278 282 287 292 298 302 307 313 318 325 329 317 265 255 259 264 273 278 278 280 283 282 282 281 277 273 266 258 252 247
245 229 222 219 217 215 214 214 214 215 215 214 214 215 214 214 213 214 215 214 215 216 217 218 220 222 224 227 230 234 236 238 239 239 240 242 244 245 246 247 246 244 241 241 242 244 245 248 252 257 263 267 270 273 276 281 289 296 301 307 312 319 326 333 334 328 314 295 282 273 273 278 281 282 285 287 286 285 282 279 276 271 264 258 253
295 248 230 225 221 216 212 211 211 212 213 213 214 215 214 213 212 212 212 212 214 215 215 216 217 219 221 224 228 232 233 233 234 235 236 238 240 241 242 243 243 242 240 239 240 244 248 254 260 263 265 269 273 277 282 288 300 311 319 327 334 338 343 344 337 325 313 304 295 287 285 287 287 287 288 286 284 283 281 280 279 277 273 266 260
319 280 245 234 226 217 212 209 207 208 209 210 213 215 215 214 212 210 209 209 211 213 214 214 214 214 217 222 226 228 227 225 226 228 229 231 234 236 237 238 239 241 242 241 242 247 250 252 252 251 252 261 275 292 310 323 332 338 342 347 350 352 353 349 339 329 319 309 302 296 294 296 295 292 290 286 282 280 279 278 277 278 277 273 267
327 305 264 240 227 217 212 208 203 200 201 204 207 209 212 213 213 212 210 208 208 210 210 210 212 213 215 217 217 215 215 218 221 224 226 228 229 229 229 230 231 233 233 230 223 216 207 190 173 172 183 228 308 335 350 354 354 355 356 358 358 357 354 349 342 337 329 321 313 306 302 300 298 295 293 289 284 281 280 278 274 274 275 273 267
337 321 289 248 226 215 208 202 195 189 185 183 184 187 197 206 210 213 214 213 213 213 212 213 217 218 218 217 212 205 205 212 216 217 217 216 216 212 206 200 195 190 186 181 171 159 155 153 150 148 96 24 10 10 11 6 3 5 6 4 1 356 351 348 344 339 333 328 321 315 310 306 301 298 295 291 286 285 282 278 274 272 272 269 265
335 318 294 253 223 207 196 189 185 180 174 169 163 158 166 189 202 207 211 214 217 218 220 223 225 224 220 216 213 214 215 211 200 192 188 184 182 179 170 162 159 156 153 155 155 150 148 140 112 79 54 41 30 24 20 15 12 11 7 2 357 352 347 345 342 338 334 331 326 321 316 311 306 303 299 294 291 290 287 281 276 273 270 265 263
315 293 272 240 215 199 187 180 177 174 170 167 163 154 144 143 166 193 206 213 217 218 221 227 231 229 223 215 210 213 213 197 177 168 166 162 158 154 149 145 146 146 148 153 150 138 128 111 88 68 52 46 39 31 27 23 16 7 357 352 351 351 348 347 345 341 336 332 329 325 321 316 312 310 307 301 298 296 293 287 280 274 270 266 264
298 269 247 225 207 194 184 178 173 168 164 163 163 158 146 127 110 111 159 199 213 216 219 224 224 220 216 211 201 187 176 169 163 157 152 147 143 141 139 139 140 143 149 155 141 122 107 93 77 60 47 45 41 34 29 22 8 356 349 347 351 354 352 349 347 343 338 335 331 328 325 323 320 317 312 307 304 300 295 290 283 275 271 268 266
293 256 230 208 194 187 181 174 170 168 166 163 163 161 154 140 120 105 102 111 130 154 173 190 199 196 192 191 183 165 153 150 148 143 138 134 131 131 133 134 134 134 139 140 124 104 87 75 64 48 41 47 42 31 23 9 355 353 354 352 352 354 354 352 350 346 343 340 335 330 328 327 324 320 316 311 309 306 300 293 286 279 275 271 268
290 249 225 203 189 182 178 175 172 170 168 167 165 162 156 149 138 124 114 108 104 104 108 114 121 128 132 140 144 141 136 134 132 129 127 125 124 127 132 129 122 114 109 106 98 87 74 63 52 39 40 49 38 14 3 358 355 356 359 358 356 354 352 351 349 347 345 342 337 333 331 329 326 322 319 317 316 314 307 298 289 281 275 272 271
94 165 198 201 189 179 176 176 173 169 166 163 160 155 148 143 138 131 125 119 112 105 103 106 109 112 116 120 125 126 127 126 123 121 124 125 125 126 125 118 109 99 91 85 79 74 66 54 44 35 34 37 21 1 2 4 1 359 360 358 355 351 349 348 347 348 347 344 339 334 332 331 328 325 324 323 322 320 314 305 295 285 278 277 276
92 103 118 157 171 169 170 171 169 166 163 157 152 146 139 135 130 125 121 119 115 111 109 110 113 116 117 119 123 126 128 125 119 116 117 117 118 117 112 106 100 94 87 78 71 66 56 42 34 28 21 15 7 3 4 1 359 1 1 357 350 347 348 348 348 350 349 345 340 336 334 332 330 328 329 328 326 324 320 313 304 293 282 280 279
98 105 117 130 136 142 149 154 156 156 152 146 141 135 130 126 124 120 116 113 111 109 107 108 110 112 115 121 129 133 130 123 118 115 114 112 110 106 100 97 96 92 82 70 62 56 43 29 20 11 3 357 354 355 357 356 357 359 360 356 352 350 350 350 351 352 350 346 342 339 336 335 335 334 333 331 328 327 326 321 314 303 290 284 281
107 112 121 130 131 126 125 131 136 136 133 129 129 129 125 120 118 115 112 109 105 101 98 98 99 102 107 118 131 135 131 123 116 111 108 106 102 96 91 89 84 75 64 54 45 38 29 20 7 355 351 347 341 343 350 351 350 350 350 351 352 352 351 351 351 353 351 347 344 343 342 343 345 344 341 337 334 333 333 330 324 315 304 293 287
108 113 121 128 127 122 119 121 125 126 123 119 118 119 117 114 112 111 109 104 96 91 90 89 88 94 106 120 129 131 125 115 108 104 100 96 91 86 79 71 61 51 47 43 34 25 20 13 357 343 338 337 336 342 346 342 342 345 347 349 351 352 352 351 349 350 351 348 348 351 353 356 357 355 352 348 343 343 344 343 342 340 330 317 311
108 109 113 117 118 117 114 109 107 114 119 117 113 109 107 108 109 108 105 100 94 89 87 84 80 84 100 114 124 125 115 104 98 96 91 85 79 70 60 52 46 43 43 42 35 21 6 354 343 336 335 338 345 351 344 333 335 344 352 355 354 351 350 347 345 346 348 348 351 357 3 6 7 4 1 359 357 357 359 360 4 12 16 21 44
110 107 107 109 111 111 108 99 89 93 105 110 110 106 103 104 106 106 103 99 95 90 87 82 78 82 92 100 108 110 104 96 91 86 79 74 69 60 52 46 43 41 38 35 25 7 353 348 347 347 350 354 356 353 339 329 334 348 357 358 355 350 348 345 343 344 346 348 353 0 6 11 14 12 10 10 10 11 14 14 18 28 37 46 60
114 108 106 106 105 104 102 97 91 88 91 97 102 104 104 104 104 103 100 96 93 89 86 81 80 84 90 95 100 101 97 92 88 81 74 70 66 61 56 51 46 41 34 27 19 6 358 358 360 360 359 355 349 343 335 332 340 351 355 354 351 347 346 344 342 344 347 349 352 360 7 14 18 19 19 20 20 23 27 28 28 33 39 45 57
118 111 108 107 105 102 100 100 98 93 88 87 92 98 101 101 100 99 96 92 88 86 84 80 80 83 86 89 96 97 93 88 85 79 73 68 63 61 58 54 50 44 33 26 24 15 5 2 0 358 355 347 341 341 340 340 345 349 350 348 345 340 340 341 341 342 347 351 355 2 10 16 20 22 24 26 27 30 39 45 44 43 43 44 50
118 112 108 107 106 104 103 101 99 97 95 94 93 94 96 96 95 93 92 89 85 84 82 80 79 81 80 82 88 90 87 83 81 78 76 71 66 62 58 52 49 47 40 35 33 25 12 5 2 2 4 0 353 353 351 346 346 345 343 342 340 335 335 338 340 339 342 348 355 4 11 16 19 21 24 27 28 30 38 49 56 60 62 61 59
112 111 109 106 104 103 103 102 101 100 100 98 94 91 92 92 91 89 89 88 85 84 82 79 78 78 76 76 78 79 79 79 77 75 74 73 69 67 63 56 53 55 54 50 45 36 27 23 19 18 23 24 16 11 5 354 350 350 345 340 337 335 333 335 337 338 338 340 347 355 4 10 12 14 17 24 28 29 33 43 54 63 71 75 76
100 103 105 105 104 102 100 100 100 100 98 96 94 92 90 89 89 88 88 87 86 84 80 77 75 74 71 70 70 70 71 73 73 72 73 74 73 71 68 63 62 63 62 60 56 51 49 48 43 39 38 36 27 19 14 5 357 355 352 344 337 333 332 333 336 338 337 336 337 340 344 349 354 360 6 13 17 20 28 43 53 60 67 75 81
90 89 91 94 96 97 96 95 94 92 91 91 91 90 87 85 86 86 84 82 82 82 80 76 73 71 69 67 67 66 66 67 69 70 72 74 75 74 71 69 68 66 62 61 62 61 58 57 56 54 53 48 40 30 25 18 9 4 0 353 344 338 333 333 335 335 335 334 333 333 336 339 342 345 349 352 354 356 3 23 43 56 67 77 84
71 75 78 79 81 83 86 88 88 86 86 85 83 80 78 77 78 79 77 74 74 76 77 75 72 69 68 66 65 66 67 67 67 67 68 69 72 72 70 69 68 65 63 62 61 59 56 54 53 52 51 49 44 37 32 28 23 17 11 3 356 350 343 338 336 333 332 332 330 328 331 335 337 339 341 342 342 341 340 343 352 6 28 62 89
59 60 64 69 71 71 73 77 80 81 83 84 81 76 72 71 70 70 70 69 69 70 72 73 70 68 67 64 63 64 65 64 63 63 64 66 69 70 69 68 66 63 62 61 58 55 54 51 49 48 47 45 43 40 36 32 29 24 18 11 7 1 354 349 344 338 334 334 332 329 329 331 332 335 337 338 337 335 331 328 330 331 330 332 337
72 65 61 62 66 69 69 70 71 72 75 77 76 72 68 68 68 68 67 68 68 68 69 70 69 66 64 62 59 59 59 60 60 59 60 63 66 68 68 68 66 63 61 60 57 54 52 49 47 47 48 46 43 40 37 33 30 25 19 12 7 2 357 354 352 349 346 344 341 337 333 330 329 330 332 332 334 332 325 322 324 324 320 314 304
87 82 74 68 68 70 72 72 71 70 70 71 71 70 68 68 68 68 67 67 67 66 67 70 70 68 66 64 61 59 58 58 59 60 59 60 62 63 63 63 62 61 61 59 57 54 51 48 46 45 46 45 42 39 36 32 27 22 16 11 5 1 357 354 353 354 354 353 350 348 343 338 336 335 334 332 333 332 326 320 316 314 313 312 301
Height
763 767 769 772 775 778 782 785 787 790 793 796 798 800 802 804 806 809 811 813 814 816 817 818 820 822 823 824 825 826 828 829 830 831 832 833 833 835 835 836 837 837 838 838 839 840 840 840 841 841 843 843 843 843 843 844 845 845 845 846 846 847 848 849 848 843 841 842 843 844 845 845 845 845 845 845 845 845 845 845 846 846 847 847 848
761 764 767 770 773 775 778 781 785 788 791 793 795 798 800 802 804 807 809 810 812 813 815 816 818 819 821 822 823 824 825 826 827 828 829 830 831 832 833 834 834 834 835 836 836 837 838 838 839 839 840 841 840 841 841 842 842 842 843 844 844 845 846 847 847 844 840 840 841 842 843 843 843 842 843 842 842 843 843 843 843 843 843 844 844
758 761 764 767 770 773 776 779 782 785 788 790 792 795 797 799 802 804 806 808 809 811 813 814 816 817 818 820 820 822 823 823 825 826 826 827 828 829 830 831 831 832 832 832 833 835 836 836 836 836 838 838 838 838 838 839 840 840 841 842 842 843 844 845 845 843 840 838 838 840 840 840 840 840 840 840 840 841 840 840 840 840 840 841 841
756 759 762 764 767 771 774 777 780 782 785 787 789 792 795 797 799 801 803 805 807 808 810 811 813 815 816 817 818 819 820 820 822 823 823 825 826 826 828 828 828 829 829 830 831 832 833 833 833 834 835 835 835 835 836 836 837 837 838 839 839 840 841 842 842 841 839 837 836 836 838 838 837 837 838 838 838 838 837 837 837 836 836 837 837
753 756 759 762 765 768 771 774 777 779 782 784 786 789 792 794 796 798 800 802 804 805 807 809 810 812 812 813 814 815 816 818 819 820 821 822 823 824 824 825 825 826 827 828 829 830 830 830 830 832 833 833 832 832 833 833 834 835 835 836 836 837 838 839 839 839 838 835 833 833 835 835 835 835 835 835 835 834 834 833 833 833 833 833 834
750 753 757 760 762 765 768 771 773 776 778 781 783 786 789 791 793 795 797 799 800 802 804 805 807 808 809 810 811 812 813 815 816 817 818 819 820 821 821 822 823 823 824 825 826 827 828 827 828 830 830 830 829 829 829 830 831 832 832 833 833 834 834 835 836 836 835 833 832 831 831 832 832 831 832 832 832 831 831 830 829 829 829 829 829
747 750 753 756 759 761 764 766 769 772 774 777 780 783 785 788 790 792 793 795 797 799 800 802 803 804 805 806 808 809 811 812 813 814 815 816 817 818 818 819 820 820 821 822 824 825 825 825 826 827 827 826 826 826 827 828 829 829 830 830 831 831 831 832 832 833 832 831 830 830 828 828 828 828 828 829 829 828 827 827 825 824 825 825 825
742 746 749 752 755 756 759 762 765 768 771 775 778 780 782 784 786 788 790 792 793 795 797 798 800 801 802 803 804 806 808 809 810 811 812 813 814 814 815 816 817 817 818 819 821 822 822 822 823 823 823 823 822 823 824 825 826 827 827 828 828 828 828 829 829 830 830 829 828 827 826 825 824 825 825 826 825 823 822 823 821 819 820 821 821
738 742 745 747 750 753 756 759 762 765 769 772 774 777 779 781 783 785 787 788 790 792 793 795 797 798 799 800 801 803 805 805 805 807 808 809 810 811 812 813 814 815 815 816 818 818 819 819 819 819 819 819 819 820 821 822 823 823 824 825 825 825 825 826 826 827 827 827 826 825 824 822 821 822 821 820 820 818 818 820 817 815 817 817 817
734 737 740 743 746 750 753 756 759 762 765 768 770 773 776 778 780 782 784 785 787 788 790 792 794 794 795 797 798 799 800 800 801 802 803 805 806 808 809 810 811 812 813 814 814 815 815 815 815 815 816 816 817 817 817 819 819 820 821 822 822 822 822 823 823 824 824 824 823 823 821 818 817 818 817 815 816 816 816 816 815 814 816 816 814
730 733 736 739 744 747 750 753 756 759 761 764 767 769 772 775 777 778 780 782 784 786 787 789 790 791 792 793 794 795 796 796 797 798 799 801 803 805 805 807 808 809 810 810 810 811 812 812 812 812 813 813 813 813 814 815 815 816 817 818 819 819 819 819 820 820 821 820 819 819 817 814 813 814 813 812 813 812 812 813 813 813 815 814 812
727 730 733 737 740 743 746 750 753 756 758 761 763 766 769 771 773 775 776 778 781 782 784 785 785 787 789 789 790 791 791 792 793 794 796 798 800 801 802 804 805 806 807 807 807 807 808 809 809 809 809 809 809 810 810 810 811 812 812 813 814 814 814 815 815 816 817 816 815 814 812 810 809 809 810 810 809 809 809 810 811 811 811 811 810
724 727 729 733 736 739 743 746 749 752 754 757 760 762 764 766 768 770 772 775 777 778 779 780 781 783 785 785 786 787 787 788 789 791 792 794 796 798 800 801 802 803 803 803 804 804 804 805 805 805 805 805 806 807 807 807 807 807 808 809 809 809 809 808 809 812 813 813 811 808 807 808 806 804 806 807 806 807 807 806 807 807 807 807 805
720 722 725 729 732 735 739 742 745 748 750 753 756 758 760 761 763 766 768 771 773 773 774 776 777 779 780 781 782 783 784 785 786 788 789 791 793 795 797 798 800 800 800 800 800 800 801 802 802 801 801 802 803 803 803 804 804 803 803 803 803 803 803 802 804 808 809 809 807 803 801 803 802 800 802 804 804 803 802 801 801 801 801 801 800
716 718 722 725 728 732 735 738 741 743 746 749 751 753 755 757 759 762 764 766 767 768 770 772 773 774 776 778 779 779 779 781 783 785 786 788 790 792 794 795 796 796 796 796 797 797 797 798 798 798 798 798 799 800 800 801 800 799 799 798 799 799 797 797 801 803 803 803 801 798 797 798 799 797 798 799 799 796 795 797 798 797 797 797 797
712 715 719 722 725 728 731 734 737 739 742 744 747 749 751 753 755 758 760 761 762 764 765 767 768 770 772 774 775 774 774 777 780 781 782 785 787 789 791 792 792 792 792 792 793 793 794 794 794 794 794 794 795 796 797 797 797 796 794 794 795 794 792 794 798 798 796 796 794 793 792 792 794 795 794 794 792 789 791 794 793 792 793 793 791
710 712 715 718 721 724 727 730 732 734 737 740 742 744 746 748 751 753 755 756 758 759 760 762 763 766 767 769 770 770 770 773 776 777 779 781 784 786 787 787 787 787 787 788 789 789 789 790 791 791 790 790 792 792 793 794 793 792 791 790 790 789 788 791 792 790 790 789 788 788 787 788 792 793 788 785 783 784 789 787 780 782 787 789 788
706 709 712 715 717 720 722 725 727 730 732 735 737 739 741 743 746 747 749 751 752 754 755 757 759 761 762 763 765 766 767 769 772 773 775 778 780 781 782 783 782 782 783 784 784 785 785 786 787 787 786 787 788 788 789 790 789 788 787 787 785 784 784 787 787 784 784 783 783 785 785 786 787 783 775 773 774 780 783 777 771 776 782 784 786
703 705 708 710 713 715 718 720 722 725 727 730 732 734 736 738 740 742 744 746 747 749 751 753 754 756 757 759 761 763 764 765 768 769 771 773 775 777 778 778 777 778 779 780 780 781 781 781 782 783 782 783 784 784 785 786 785 784 784 784 782 780 781 784 783 780 779 779 781 784 782 779 775 771 767 767 769 772 774 769 767 772 774 776 780
699 701 704 706 708 711 713 716 718 721 723 725 727 729 731 733 736 738 740 742 744 746 747 749 750 752 754 756 758 759 760 762 763 764 766 769 771 772 774 773 773 774 775 776 776 777 777 777 778 779 778 778 779 780 781 782 782 782 782 782 780 777 777 778 777 776 776 777 780 781 775 770 769 768 766 764 763 765 766 765 764 766 768 768 769
697 699 701 704 706 708 710 712 715 717 719 721 723 725 727 730 732 734 736 738 740 742 744 745 747 749 751 752 754 755 757 758 759 760 762 764 766 768 768 768 769 770 771 772 772 773 773 774 774 775 775 775 776 777 778 779 779 779 778 778 776 774 774 773 772 773 775 776 780 780 772 767 769 767 762 759 758 759 759 758 757 758 759 759 758
696 698 700 702 704 706 708 710 711 714 716 718 720 722 724 726 728 730 732 734 736 738 740 742 744 745 747 749 750 751 753 754 755 756 758 760 762 763 764 764 765 767 767 768 769 769 770 771 771 772 773 773 774 774 775 775 775 775 774 774 773 772 771 770 768 770 771 772 776 775 767 762 762 761 757 755 754 752 750 749 748 747 747 747 747
694 696 697 699 701 703 705 707 709 711 713 715 717 719 720 723 725 727 729 731 733 735 737 739 741 742 744 746 747 748 749 750 751 753 755 757 758 759 760 761 763 764 764 764 765 766 767 768 769 770 770 771 771 772 772 772 772 772 771 771 770 769 769 767 766 766 767 767 768 767 762 758 757 754 752 750 748 746 744 741 740 738 737 735 733
691 692 693 695 696 698 701 703 705 707 709 711 713 715 717 719 721 723 726 728 730 732 733 736 738 739 741 742 743 744 746 746 748 749 751 753 754 756 757 758 759 760 761 762 763 764 765 766 767 767 768 769 769 769 770 770 769 769 768 768 767 767 766 765 764 763 764 765 764 762 759 756 753 749 747 744 742 741 738 734 731 730 727 724 721
689 690 691 692 693 694 697 699 701 703 706 708 710 712 714 716 718 721 723 725 727 728 730 732 734 736 738 739 740 741 742 743 745 746 748 750 751 752 753 755 756 757 758 759 760 762 763 764 765 766 766 767 767 767 767 767 766 766 766 766 765 765 763 763 762 762 762 762 761 759 756 753 750 746 744 741 740 738 733 727 724 722 720 717 713
687 688 689 690 691 692 694 696 698 700 703 705 707 708 711 713 715 717 719 721 723 725 727 729 731 733 734 735 736 738 739 740 742 743 745 746 748 749 750 752 753 754 755 756 758 759 761 762 763 764 764 764 765 765 765 765 765 765 764 764 763 762 761 761 760 760 760 759 758 756 753 750 747 743 741 739 736 733 729 724 719 717 717 714 708
687 687 688 689 690 691 693 694 696 698 700 702 704 706 708 710 712 714 716 718 721 723 725 726 728 730 731 733 734 735 736 737 739 740 742 743 744 746 747 748 750 751 752 754 756 757 759 760 761 762 762 762 763 763 763 763 763 762 762 761 761 760 760 759 758 758 757 756 755 753 750 747 744 741 738 735 732 728 725 721 717 713 711 710 705
686 686 687 688 689 690 692 693 694 696 698 700 703 705 707 708 710 711 713 715 718 720 722 723 725 726 728 729 731 732 734 735 736 737 739 740 741 743 744 746 747 749 750 752 754 756 757 758 759 760 761 761 762 762 762 761 761 760 760 759 759 758 757 756 755 754 753 752 751 749 746 744 741 737 734 731 727 723 720 718 713 708 705 704 699
686 686 686 687 688 689 691 692 693 695 697 699 701 704 706 707 709 710 712 714 715 717 718 720 721 723 724 726 727 729 731 732 734 736 737 738 739 741 742 744 745 747 749 751 752 754 756 757 758 759 760 760 760 760 759 759 759 759 758 758 757 756 755 753 752 751 750 748 747 744 742 740 737 733 730 725 720 717 715 712 707 703 700 698 691
685 686 686 687 688 689 690 692 693 694 696 698 700 703 705 707 708 710 711 713 714 715 717 718 719 720 722 723 725 727 728 730 733 735 736 738 739 740 741 743 745 747 749 750 752 753 755 756 757 758 758 758 758 758 758 758 757 757 757 756 756 755 753 752 751 749 747 746 743 741 738 735 731 728 724 719 713 710 708 705 702 698 695 690 685
685 685 686 687 688 688 690 691 692 693 695 697 699 701 704 706 708 709 710 711 713 714 715 716 717 719 720 721 724 726 728 730 733 735 736 738 739 740 742 744 745 747 748 750 751 753 754 755 756 757 757 757 757 757 757 757 757 757 757 756 755 754 752 751 749 747 745 743 740 737 734 731 727 723 719 715 709 704 701 698 696 692 689 685 680
684 685 686 687 687 688 689 690 691 693 695 697 699 700 702 705 707 709 710 710 711 713 714 715 717 718 719 720 722 725 727 730 733 735 737 738 739 741 742 744 746 747 749 750 751 753 754 755 755 756 756 756 757 757 757 757 757 758 757 755 754 752 751 749 747 745 743 740 738 735 731 727 724 720 716 711 706 700 695 692 690 686 683 679 675
684 685 686 686 687 688 689 690 691 693 694 696 698 700 701 703 705 708 710 710 711 712 714 715 716 718 719 721 723 725 728 731 733 735 737 739 740 742 744 745 746 748 749 750 751 752 753 754 755 755 756 756 756 757 757 758 757 757 756 754 752 751 750 748 746 744 741 739 736 733 730 726 722 718 713 708 703 697 691 686 683 680 677 673 670
684 686 687 687 687 688 689 690 691 692 694 695 697 699 700 701 703 705 708 710 712 715 716 716 718 719 721 724 726 728 731 733 735 737 738 740 741 743 744 746 747 749 750 750 751 752 753 754 754 755 755 756 757 757 757 757 756 755 754 752 751 750 749 748 746 743 740 737 734 732 729 725 721 717 712 705 699 693 687 681 677 674 671 668 666
685 686 688 689 689 689 689 690 691 693 694 696 697 698 700 702 703 705 707 709 713 716 718 720 721 723 725 728 731 733 734 735 737 738 740 741 742 744 746 747 748 749 750 750 751 752 753 754 754 755 755 756 757 757 756 755 754 753 752 751 751 750 748 746 744 742 739 736 733 731 728 724 720 717 711 704 697 690 684 678 673 669 666 664 661
687 687 688 690 691 691 691 691 692 693 694 696 698 699 701 703 705 707 709 711 713 716 719 722 724 726 728 731 734 736 737 738 739 740 741 743 744 745 746 747 748 749 750 750 751 752 753 753 754 754 755 755 755 755 754 754 753 752 751 751 750 749 747 745 742 740 738 735 733 731 728 724 720 715 709 702 695 689 682 676 670 665 662 660 657
688 688 689 690 691 692 693 693 694 695 696 697 699 701 702 704 706 709 712 714 716 718 721 724 725 727 730 732 735 738 740 741 741 741 743 744 745 746 746 747 748 749 750 751 751 752 752 753 753 754 754 754 754 753 753 752 752 751 751 750 750 748 746 744 742 740 738 736 733 731 727 723 719 714 709 702 695 688 681 675 668 663 659 656 654
689 689 690 691 692 693 695 696 696 697 698 700 702 703 704 706 709 712 714 717 719 721 723 726 728 730 732 734 737 739 741 742 742 743 744 745 745 746 746 747 748 749 750 750 751 751 752 753 753 753 753 753 752 752 751 751 751 751 750 750 748 747 745 743 742 741 739 736 733 731 727 722 717 713 708 703 696 689 682 675 668 662 657 653 652
690 691 692 692 692 694 697 699 700 699 700 702 705 707 707 708 712 715 718 720 723 724 726 729 731 733 735 737 739 741 742 743 743 744 745 745 746 747 747 748 749 749 750 750 751 751 752 753 753 753 752 751 751 750 750 750 750 750 750 748 747 745 744 743 742 741 739 736 733 730 725 721 716 712 708 704 699 692 684 677 670 663 657 652 650
692 693 694 694 694 695 698 700 702 702 701 702 706 709 710 710 714 718 721 723 725 728 729 731 734 736 737 739 740 741 741 742 744 745 745 746 747 748 748 749 749 750 750 751 751 752 752 752 752 751 750 750 749 749 749 749 750 749 748 747 746 744 743 743 742 741 739 736 733 729 725 720 716 713 709 705 700 694 688 681 675 667 661 656 652
694 695 696 696 696 697 699 702 705 705 704 703 706 710 713 714 716 720 723 725 728 730 732 733 736 738 739 740 741 741 741 743 745 746 747 748 748 748 749 749 750 750 751 751 752 752 752 751 750 749 748 748 748 748 749 749 749 748 747 746 745 744 743 742 742 740 739 736 733 729 725 720 716 714 711 707 703 698 692 687 682 675 670 665 661
696 697 698 699 699 700 701 705 708 709 709 707 707 711 715 717 719 722 725 727 730 732 733 735 738 739 740 741 742 742 743 745 747 747 748 749 749 749 750 750 751 751 752 751 751 751 750 749 749 748 748 748 748 748 748 748 747 747 746 744 744 743 743 742 741 740 738 736 733 729 726 722 718 716 714 711 707 702 697 692 688 684 679 676 672
697 699 700 701 701 703 705 707 709 712 713 713 712 714 716 718 721 724 727 729 732 734 735 738 740 741 742 743 744 744 745 747 748 749 749 750 750 751 751 752 752 752 751 751 751 750 750 749 749 749 749 749 749 748 748 747 746 745 744 744 743 743 743 742 741 739 737 735 733 730 727 723 720 718 716 714 711 708 703 698 694 691 688 686 682
699 701 703 703 703 705 708 710 711 714 716 717 717 718 719 721 724 727 729 732 734 736 738 740 742 743 744 745 746 746 747 748 749 750 751 751 752 752 752 752 752 752 751 751 750 750 750 750 750 750 749 749 748 748 747 746 746 745 744 744 743 743 743 742 740 739 737 735 733 730 728 725 722 720 719 716 714 712 708 703 700 697 694 692 690
702 704 705 706 707 709 711 713 714 716 717 718 720 722 723 724 727 729 731 734 736 738 740 743 744 745 746 747 747 748 748 749 750 751 751 752 752 752 752 752 752 752 751 751 751 751 751 751 750 750 749 749 748 747 747 746 746 745 744 744 743 743 742 742 740 738 737 735 733 731 729 726 724 722 721 719 717 715 712 709 705 702 699 697 694
707 708 708 709 710 712 715 717 718 718 719 721 722 724 726 727 729 732 734 735 738 740 742 744 745 746 747 748 749 749 750 750 751 752 752 753 753 753 753 753 753 752 752 752 752 752 752 751 750 750 749 748 748 747 747 746 746 745 745 744 743 743 742 741 740 738 736 734 733 731 729 727 725 724 722 721 719 718 715 712 709 707 704 702 700
712 714 714 715 715 717 719 720 721 722 723 725 726 727 729 731 733 734 736 738 740 742 743 745 746 747 748 749 750 751 752 752 753 753 754 754 753 754 754 754 754 754 754 753 753 753 752 751 751 750 749 748 748 747 747 746 746 746 745 744 743 742 742 740 739 738 736 734 733 731 729 727 726 724 723 721 720 719 718 715 712 710 708 706 704
718 719 720 721 722 723 724 724 725 726 728 729 731 732 734 736 737 739 740 742 743 744 745 747 748 749 750 751 752 753 754 754 754 755 755 755 755 755 756 756 756 755 755 754 754 753 752 752 751 750 749 748 748 747 747 747 746 746 745 744 743 742 741 740 738 737 735 734 732 731 729 727 726 724 722 721 720 719 718 716 714 712 710 708 706
727 727 727 726 727 729 730 730 730 732 733 734 735 738 740 741 743 744 745 746 747 748 749 750 751 752 753 754 754 755 755 756 756 757 757 757 757 757 757 757 757 756 756 755 754 754 753 752 751 750 749 749 749 748 748 747 746 746 745 744 743 742 741 739 738 736 735 733 732 730 729 727 726 724 722 721 720 719 718 716 715 713 711 709 708
731 735 736 734 733 734 735 736 737 739 740 739 740 742 744 746 748 749 750 751 751 752 753 753 754 755 755 756 757 757 757 758 758 759 759 759 759 759 759 758 758 757 757 756 755 754 753 753 752 751 751 751 750 750 749 748 746 746 745 744 743 742 740 739 738 736 734 733 731 730 728 727 726 724 723 721 720 718 717 716 715 713 711 710 708
731 737 742 744 744 742 741 742 743 745 746 745 745 747 750 751 752 753 754 755 755 756 756 757 757 757 758 759 760 761 761 761 761 761 761 761 761 760 760 760 760 759 758 758 757 756 755 755 754 754 753 752 751 751 749 748 747 746 745 744 743 741 740 739 737 736 734 732 731 729 728 727 725 724 723 721 720 719 718 717 715 713 711 710 709